Location: Cheching
(60.0667°N, 164.2167°W)
Time: 01:14:10
(UTC+00:00)

O/OREOS (USA 219) - Pass Details

Date: 25 January 2021
Orbit: 621 x 646 km, 72.0° (Epoch: 22 May)

Event Time Altitude Azimuth Distance (km) Brightness Sun altitude
Rises 15:46:18 0° 148° (SSE) 2,954 ? -26.5°
Reaches altitude 10° 15:50:10 10° 115° (ESE) 2,049 ? -26.0°
Maximum altitude 15:51:36 11° 97° (E) 1,960 ? -25.9°
Drops below altitude 10° 15:53:02 10° 78° (ENE) 2,052 ? -25.7°
Sets 15:56:55 0° 46° (NE) 2,965 ? -25.2°
